Breckenridge, TX

9:08 AM CST on February 11, 2016 (GMT -0600)
Stephens County

Weather History for KBKD - March, 2014

Change the Weather History Date:

Monday, March 10, 2014

  Actual Average (KABI) Record (KABI)
Temperature  
Mean Temperature 60 °F 55 °F  
Max Temperature 80 °F 67 °F 94 °F (1911)
Min Temperature 42 °F 43 °F 12 °F (1948)
Degree Days  
Heating Degree Days 4 11  
Month to date heating degree days 121  
Since 1 July heating degree days 2254  
Cooling Degree Days 0 1  
Month to date cooling degree days 5  
Year to date cooling degree days 10  
Growing Degree Days 10 (Base 50)    
Moisture  
Dew Point 38 °F    
Average Humidity 45    
Maximum Humidity 70    
Minimum Humidity 18    
Precipitation  
Precipitation 0.00 in 0.05 in 0.76 in (1973)
Month to date precipitation 0.57  
Year to date precipitation 2.95  
Sea Level Pressure  
Sea Level Pressure 30.01 in    
Wind  
Wind Speed 9 mph (SSW)    
Max Wind Speed 17 mph    
Max Gust Speed 33 mph    
Visibility 10 miles    
Events      
T = Trace of Precipitation, MM = Missing Value Source: NWS Daily Summary

Daily Weather History Graph

Daily Weather History Graph

Search for Another Location

Airport or City:

Trip Planner

Search our weather history database for the weather conditions in past years. The results will help you decide how hot, cold, wet, or windy it might be!

Date:

Astronomy

Mar. 10, 2014 Rise Set
Actual Time 7:52 AM CDT 7:39 PM CDT
Civil Twilight 7:27 AM CDT 8:04 PM CDT
Nautical Twilight 6:59 AM CDT 8:32 PM CDT
Astronomical Twilight 6:30 AM CDT 9:01 PM CDT
Moon 2:37 PM CDT (3/10) 3:52 AM CDT (3/10)
Length of Visible Light 12h 36m
Length of Day
11h 47m
Waxing Gibbous, 70% of the Moon is Illuminated
Mar 10
Waxing Gibbous
Mar 16
Full
Mar 23
Last Quarter
Mar 30
New
Apr 7
First Quarter

Hourly Weather History & Observations

Time (CDT) Temp. Windchill Dew Point Humidity Pressure Visibility Wind Dir Wind Speed Gust Speed Precip Events Conditions
12:10 AM 47.7 °F - 32.0 °F 55% 30.18 in 10.0 mi SSE 11.5 mph - N/A   Clear
12:30 AM 48.2 °F - 32.2 °F 54% 30.18 in 10.0 mi SSE 11.5 mph - N/A   Clear
12:50 AM 49.1 °F - 32.9 °F 54% 30.18 in 10.0 mi SSE 11.5 mph - N/A   Clear
1:10 AM 46.8 °F - 32.5 °F 58% 30.17 in 10.0 mi South 6.9 mph - N/A   Clear
1:30 AM 46.6 °F - 32.5 °F 58% 30.16 in 10.0 mi South 6.9 mph - N/A   Clear
1:50 AM 46.8 °F - 32.9 °F 59% 30.16 in 10.0 mi South 6.9 mph - N/A   Clear
2:10 AM 46.8 °F - 33.1 °F 59% 30.16 in 10.0 mi South 8.1 mph - N/A   Clear
2:35 AM 47.5 °F - 33.4 °F 58% 30.15 in 10.0 mi South 6.9 mph - N/A   Clear
2:50 AM 45.5 °F 42.5 °F 33.3 °F 62% 30.15 in 10.0 mi SSW 5.8 mph - N/A   Clear
3:10 AM 46.2 °F 43.3 °F 32.9 °F 60% 30.15 in 10.0 mi South 5.8 mph - N/A   Clear
3:30 AM 45.5 °F 41.3 °F 33.3 °F 62% 30.13 in 10.0 mi South 8.1 mph - N/A   Clear
3:50 AM 45.1 °F 41.4 °F 33.4 °F 64% 30.12 in 10.0 mi South 6.9 mph - N/A   Clear
4:10 AM 45.3 °F 42.3 °F 33.8 °F 64% 30.11 in 10.0 mi South 5.8 mph - N/A   Clear
4:30 AM 46.2 °F 42.2 °F 33.8 °F 62% 30.11 in 10.0 mi South 8.1 mph - N/A   Clear
4:50 AM 44.6 °F 42.2 °F 33.4 °F 65% 30.10 in 10.0 mi South 4.6 mph - N/A   Clear
5:10 AM 44.1 °F 41.5 °F 33.3 °F 66% 30.10 in 10.0 mi SSE 4.6 mph - N/A   Clear
5:30 AM 43.5 °F 39.4 °F 33.8 °F 69% 30.09 in 10.0 mi SSE 6.9 mph - N/A   Clear
5:50 AM 43.0 °F 40.3 °F 33.4 °F 69% 30.10 in 10.0 mi South 4.6 mph - N/A   Clear
6:10 AM 42.8 °F 40.1 °F 33.4 °F 70% 30.10 in 10.0 mi SSE 4.6 mph - N/A   Clear
6:30 AM 42.3 °F 38.6 °F 33.3 °F 70% 30.10 in 10.0 mi SSE 5.8 mph - N/A   Clear
6:50 AM 43.7 °F 39.7 °F 33.8 °F 68% 30.10 in 10.0 mi South 6.9 mph - N/A   Clear
7:10 AM 44.4 °F 39.5 °F 34.2 °F 67% 30.10 in 10.0 mi South 9.2 mph - N/A   Clear
7:30 AM 44.8 °F 39.9 °F 34.7 °F 68% 30.11 in 10.0 mi South 9.2 mph - N/A   Clear
7:50 AM 45.9 °F 42.9 °F 34.7 °F 65% 30.11 in 10.0 mi South 5.8 mph - N/A   Clear
8:15 AM 45.1 °F 42.0 °F 34.9 °F 67% 30.11 in 10.0 mi South 5.8 mph - N/A   Clear
8:30 AM 46.8 °F - 35.1 °F 64% 30.11 in 10.0 mi South 5.8 mph - N/A   Clear
8:50 AM 48.7 °F - 36.0 °F 61% 30.11 in 10.0 mi South 4.6 mph - N/A   Clear
9:10 AM 52.7 °F - 36.5 °F 54% 30.11 in 10.0 mi SSW 5.8 mph - N/A   Clear
9:30 AM 55.2 °F - 35.8 °F 48% 30.11 in 10.0 mi SSW 6.9 mph - N/A   Clear
9:50 AM 57.9 °F - 35.4 °F 43% 30.11 in 10.0 mi SW 5.8 mph - N/A   Clear
10:15 AM 60.8 °F - 35.6 °F 39% 30.11 in 10.0 mi SSW 10.4 mph - N/A   Clear
10:30 AM 62.4 °F - 35.1 °F 36% 30.11 in 10.0 mi SW 10.4 mph - N/A   Clear
10:50 AM 66.0 °F - 34.5 °F 31% 30.10 in 10.0 mi SSW 9.2 mph - N/A   Clear
11:10 AM 68.2 °F - 32.4 °F 26% 30.09 in 10.0 mi WSW 11.5 mph - N/A   Clear
11:30 AM 69.4 °F - 32.2 °F 25% 30.08 in 10.0 mi SSW 12.7 mph 20.7 mph N/A   Clear
11:50 AM 71.4 °F - 30.9 °F 22% 30.08 in 10.0 mi SW 10.4 mph - N/A   Clear
12:10 PM 72.3 °F - 28.4 °F 20% 30.07 in 10.0 mi WSW 10.4 mph - N/A   Clear
12:30 PM 73.2 °F - 27.7 °F 18% 30.05 in 10.0 mi SW 12.7 mph 16.1 mph N/A   Clear
12:50 PM 73.6 °F - 29.1 °F 19% 30.05 in 10.0 mi WSW 11.5 mph - N/A   Clear
1:10 PM 75.4 °F - 29.7 °F 19% 30.03 in 10.0 mi SSW 5.8 mph 18.4 mph N/A   Clear
1:30 PM 75.7 °F - 30.2 °F 19% 30.02 in 10.0 mi SSW 11.5 mph - N/A   Clear
1:50 PM 75.7 °F - 30.2 °F 19% 30.00 in 10.0 mi SW 8.1 mph - N/A   Clear
2:10 PM 76.6 °F - 33.3 °F 21% 29.98 in 10.0 mi SW 11.5 mph 18.4 mph N/A   Clear
2:30 PM 78.6 °F - 33.8 °F 20% 29.96 in 10.0 mi SSW 9.2 mph 17.3 mph N/A   Clear
2:50 PM 78.4 °F - 35.6 °F 21% 29.95 in 10.0 mi SSW 8.1 mph 19.6 mph N/A   Clear
3:15 PM 78.3 °F - 37.0 °F 23% 29.92 in 10.0 mi SSW 13.8 mph 21.9 mph N/A   Clear
3:30 PM 79.0 °F - 39.0 °F 24% 29.91 in 10.0 mi SSW 12.7 mph 19.6 mph N/A   Scattered Clouds
3:50 PM 79.0 °F - 39.4 °F 24% 29.90 in 10.0 mi SSW 11.5 mph 24.2 mph N/A   Clear
4:10 PM 79.5 °F - 41.4 °F 26% 29.88 in 10.0 mi South 17.3 mph 20.7 mph N/A   Clear
4:30 PM 79.5 °F - 43.0 °F 27% 29.88 in 10.0 mi SSW 13.8 mph 21.9 mph N/A   Clear
4:50 PM 79.3 °F - 43.5 °F 28% 29.87 in 10.0 mi SW 15.0 mph 18.4 mph N/A   Clear
5:10 PM 79.7 °F - 43.9 °F 28% 29.86 in 10.0 mi SSW 11.5 mph 20.7 mph N/A   Clear
5:30 PM 79.9 °F - 44.6 °F 29% 29.85 in 10.0 mi South 12.7 mph - N/A   Clear
5:50 PM 79.5 °F - 45.1 °F 30% 29.84 in 10.0 mi South 11.5 mph 20.7 mph N/A   Clear
6:10 PM 78.8 °F - 45.5 °F 31% 29.84 in 10.0 mi SSW 12.7 mph 33.4 mph N/A   Clear
6:30 PM 78.1 °F - 45.7 °F 32% 29.84 in 10.0 mi SSW 12.7 mph - N/A   Clear
6:50 PM 77.0 °F - 45.5 °F 33% 29.84 in 10.0 mi SSW 15.0 mph 20.7 mph N/A   Clear
7:10 PM 75.4 °F - 45.7 °F 35% 29.84 in 10.0 mi SSW 13.8 mph 19.6 mph N/A   Clear
7:30 PM 73.8 °F - 45.9 °F 37% 29.84 in 10.0 mi South 12.7 mph 17.3 mph N/A   Clear
7:50 PM 71.8 °F - 45.9 °F 39% 29.85 in 10.0 mi South 9.2 mph - N/A   Clear
8:10 PM 70.3 °F - 46.0 °F 42% 29.85 in 10.0 mi South 10.4 mph - N/A   Clear
8:30 PM 68.9 °F - 46.0 °F 44% 29.85 in 10.0 mi South 9.2 mph - N/A   Clear
8:50 PM 69.3 °F - 46.4 °F 44% 29.85 in 10.0 mi South 11.5 mph - N/A   Clear
9:10 PM 68.5 °F - 47.7 °F 47% 29.86 in 10.0 mi South 11.5 mph 17.3 mph N/A   Clear
9:30 PM 67.6 °F - 48.4 °F 50% 29.86 in 10.0 mi South 10.4 mph - N/A   Clear
9:50 PM 67.3 °F - 48.6 °F 51% 29.87 in 10.0 mi South 12.7 mph - N/A   Clear
10:15 PM 67.1 °F - 49.1 °F 52% 29.86 in 10.0 mi South 8.1 mph - N/A   Clear
10:30 PM 66.4 °F - 49.1 °F 54% 29.86 in 10.0 mi South 10.4 mph - N/A   Clear
10:50 PM 65.8 °F - 49.6 °F 56% 29.86 in 10.0 mi South 11.5 mph - N/A   Clear
11:10 PM 65.5 °F - 50.0 °F 57% 29.85 in 10.0 mi South 10.4 mph - N/A   Clear
11:30 PM 63.7 °F - 50.0 °F 61% 29.85 in 10.0 mi South 9.2 mph - N/A   Clear
11:50 PM 62.8 °F - 50.0 °F 63% 29.84 in 10.0 mi SSW 9.2 mph - N/A   Clear